RH
100 100 100 100 100 100 100 100 100 100 100 87 63 48 29 18 23 29 27 22 19 22 26 33 41 38 41 36 45 49 66 67 47 43 41 43 23 14 20 25 29 36 41 42 38
100 100 100 100 100 100 100 100 100 100 100 100 83 67 38 19 21 28 31 32 26 24 27 28 48 44 42 47 54 58 64 70 73 61 39 49 56 30 16 22 25 26 33 36 34
100 100 100 100 100 100 100 100 100 100 100 100 95 81 50 27 15 26 33 34 35 32 27 25 45 51 49 58 63 82 75 70 73 81 78 40 42 51 35 24 27 42 45 40 42
80 99 100 100 100 100 100 100 100 100 100 100 100 89 68 32 18 20 33 38 41 41 38 29 25 62 57 60 78 85 79 70 71 74 69 86 47 30 46 20 16 20 20 26 29
100 75 92 100 100 100 100 100 100 100 100 100 100 100 84 42 25 20 28 41 44 48 48 42 33 32 62 61 70 85 94 75 76 75 72 72 79 42 34 33 14 12 11 12 12
100 100 63 88 100 100 100 100 100 100 100 100 100 100 100 58 43 29 21 34 46 54 56 52 49 39 30 60 72 76 83 86 88 86 85 85 78 66 48 26 31 17 10 10 10
100 100 100 78 70 100 100 100 98 98 100 100 100 100 100 84 63 49 29 22 36 56 55 56 55 55 56 44 34 52 66 73 85 85 80 81 75 74 73 45 22 32 15 21 23
100 100 100 97 73 79 100 100 99 76 100 100 100 100 100 99 86 72 38 27 35 88 87 61 60 54 60 64 64 42 44 54 58 65 67 72 75 66 76 70 42 22 26 26 29
72 95 100 100 98 61 81 100 99 100 100 100 100 100 100 100 100 87 52 35 34 60 97 61 66 56 57 62 61 73 59 47 47 53 58 63 66 61 51 50 45 23 28 27 27
68 82 90 100 100 97 69 89 100 97 98 82 100 100 100 100 100 89 68 50 42 41 81 82 84 77 57 48 62 65 60 62 60 59 60 58 53 46 39 25 24 24 24 29 30
85 78 84 100 100 100 99 77 84 96 86 100 89 100 100 100 93 100 100 81 66 56 68 70 100 56 76 74 52 48 50 59 64 60 61 67 53 43 31 15 16 16 16 24 17
62 94 92 100 100 100 96 100 70 74 100 100 88 98 100 100 100 100 97 100 89 68 58 55 65 49 100 100 77 73 71 70 70 61 64 65 60 45 34 20 10 9 10 9 9
70 86 100 89 98 89 100 100 100 83 76 100 100 100 99 100 100 100 87 99 82 89 68 71 71 72 100 100 100 98 98 76 74 80 74 76 71 52 48 24 17 8 7 8 8
94 85 95 100 96 92 99 100 100 100 98 62 60 99 90 96 66 100 100 100 99 100 99 84 78 75 75 87 97 100 100 95 85 83 94 90 85 55 56 55 18 9 11 8 8
57 98 99 96 100 100 100 100 100 100 100 95 73 41 64 61 88 94 100 100 100 100 93 100 95 99 69 66 59 100 100 100 98 100 100 100 83 77 58 54 63 23 9 10 9
63 70 99 97 97 100 100 100 100 100 94 91 88 73 54 40 69 95 100 100 100 100 96 94 100 100 99 89 67 99 100 93 86 80 88 100 91 81 89 68 51 52 31 11 9
8 60 80 98 100 100 100 100 100 68 82 91 100 95 77 54 61 62 73 100 90 100 100 100 100 100 100 100 100 100 100 82 71 83 91 99 94 100 100 100 92 62 50 40 21
7 9 70 80 80 100 100 100 97 66 73 80 100 100 97 80 62 49 48 100 100 100 100 100 100 100 100 100 100 100 93 83 93 81 76 84 77 100 100 100 100 100 82 58 43
10 7 26 72 78 64 100 100 86 68 68 65 93 100 100 100 99 72 63 100 100 100 100 100 100 100 100 100 97 99 100 100 69 70 82 76 74 89 100 100 100 100 99 84 73
9 8 11 50 78 36 86 100 95 98 88 70 80 99 100 100 100 99 100 100 100 100 100 82 100 100 100 93 99 98 100 100 80 55 59 69 83 75 88 83 90 99 100 100 100
8 10 10 15 48 58 54 96 100 99 100 100 100 98 100 100 100 100 100 100 100 83 98 69 48 96 100 100 100 100 100 95 78 73 80 71 61 71 68 75 95 97 94 98 100
8 8 11 20 32 41 70 68 96 100 100 100 100 100 100 100 100 100 100 100 100 100 100 97 64 62 61 91 97 62 100 100 100 80 62 43 40 52 66 71 84 94 95 89 98
6 8 13 15 14 14 36 56 74 100 100 100 100 100 100 100 100 100 100 100 100 100 100 100 100 90 59 35 44 46 94 70 73 50 55 69 54 63 51 55 68 73 84 99 100
7 9 12 18 17 15 23 28 43 78 100 100 100 100 100 100 99 100 100 100 100 100 100 100 99 92 84 90 82 94 100 94 86 79 94 86 76 69 61 56 55 72 75 74 80
6 9 14 22 22 19 16 27 22 28 94 100 100 100 100 100 100 99 98 100 100 100 100 100 100 100 100 100 93 73 85 100 100 100 96 88 78 93 95 75 62 50 55 57 57
7 8 11 19 20 22 20 25 25 20 30 100 100 100 100 100 100 100 100 100 100 100 100 100 100 100 100 93 92 93 100 95 100 100 99 99 91 93 94 83 66 50 45 47 41
7 8 11 18 20 25 26 26 33 25 25 43 99 100 100 100 100 100 100 100 100 100 100 100 100 100 100 100 100 100 100 100 100 100 100 91 98 91 99 93 80 71 60 55 51
Wind_Speed
64 68 65 62 57 57 53 47 49 46 40 31 24 15 17 20 19 16 14 17 16 14 13 10 7 5 3 2 6 9 12 13 15 13 12 11 13 13 11 10 8 11 16 17 19
69 69 70 65 61 61 57 53 48 47 48 39 31 21 21 22 19 17 15 15 16 15 14 12 9 4 3 2 2 5 8 11 13 14 15 11 10 11 13 12 10 9 16 18 20
69 73 70 69 66 63 61 58 52 50 50 45 38 30 26 23 19 22 19 16 16 17 15 13 11 8 6 3 2 1 5 8 11 13 15 14 12 11 11 11 12 14 15 17 18
79 68 75 70 68 63 62 61 56 56 53 51 44 41 30 25 22 25 23 19 16 18 17 16 15 15 10 8 5 4 4 5 9 11 15 16 13 13 13 13 12 12 12 11 9
87 81 72 73 70 68 62 58 57 61 60 56 54 47 38 30 26 26 25 21 19 18 19 19 18 17 17 15 11 11 10 8 10 10 14 17 15 12 13 16 13 13 9 10 10
90 88 84 76 74 74 68 65 62 63 68 55 60 50 44 36 31 30 28 27 23 20 20 21 21 20 20 22 20 18 17 16 14 13 15 16 17 13 15 15 15 16 14 12 11
94 92 91 87 80 73 71 67 67 61 67 56 60 56 49 40 37 33 30 31 30 24 23 22 23 24 22 23 23 24 21 20 20 19 17 18 17 16 18 18 15 16 19 12 12
100 96 94 93 89 82 77 71 73 65 68 64 64 58 53 48 41 35 30 33 31 29 24 25 24 24 26 24 24 25 23 22 22 20 20 21 18 18 19 21 21 15 18 16 10
107 102 97 98 93 92 84 77 79 71 68 66 70 66 59 56 48 43 36 35 33 32 29 30 28 24 26 26 22 24 26 25 26 23 23 25 22 23 21 22 23 19 18 21 19
114 108 104 102 102 95 93 85 79 75 70 67 70 67 63 63 53 51 46 39 36 35 34 34 31 27 27 24 24 26 25 23 26 27 26 28 26 26 24 24 21 21 19 19 21
123 117 111 105 105 104 100 93 86 80 70 72 66 70 69 67 60 56 47 43 41 39 37 37 33 34 31 24 21 23 23 25 25 27 27 26 31 26 26 25 22 22 21 21 20
130 123 119 113 111 108 105 98 97 88 79 73 70 69 68 64 63 60 49 47 44 44 42 42 42 36 32 31 30 26 24 25 23 26 29 28 32 30 29 27 26 23 21 19 21
136 128 123 122 116 112 107 104 101 100 94 83 72 71 71 72 67 68 64 52 52 50 47 47 44 39 39 37 35 28 25 29 28 27 27 30 32 32 31 31 31 28 24 25 25
140 135 128 128 121 117 109 106 106 102 102 94 83 76 75 69 68 66 64 52 53 56 52 50 51 49 47 42 38 32 32 30 29 28 28 31 33 31 32 35 34 35 36 31 31
149 141 135 132 127 117 112 112 113 108 105 96 94 86 79 79 66 70 73 58 57 59 56 56 56 51 49 48 44 41 38 35 32 31 30 33 34 35 36 31 36 41 41 42 40
152 148 141 135 132 125 121 118 117 117 103 98 92 88 88 83 75 74 73 67 63 60 61 61 59 56 54 54 50 47 44 45 44 40 34 39 37 36 39 41 39 41 47 47 47
154 152 147 141 130 129 127 122 123 121 105 101 93 90 88 86 85 81 80 75 67 68 69 67 63 63 62 58 54 52 50 53 52 49 44 44 40 36 42 45 46 45 45 49 53
157 157 155 145 132 129 133 129 125 114 109 101 95 96 93 93 93 93 89 81 71 71 80 68 65 67 66 62 60 60 58 58 58 57 56 52 47 42 42 49 52 52 50 50 53
155 161 157 151 136 130 135 135 127 117 113 107 101 101 100 98 95 95 94 89 76 71 78 78 71 69 67 68 68 63 62 64 66 64 59 59 55 52 50 49 52 57 58 58 57
152 158 153 152 148 135 138 134 125 117 111 110 107 105 105 105 104 102 96 89 85 81 86 82 81 76 74 75 70 70 69 69 69 70 69 63 60 59 61 58 55 56 60 63 64
150 153 152 153 149 147 141 132 124 123 113 110 111 109 106 106 106 104 101 97 98 98 95 97 90 82 78 74 77 76 77 80 75 73 73 70 66 66 67 65 61 60 59 63 66
137 142 151 147 154 153 144 127 129 129 117 113 111 112 109 110 109 109 104 104 101 100 99 96 95 91 88 85 85 85 78 81 78 78 76 76 73 74 71 69 70 68 67 67 67
113 135 150 148 151 152 139 133 131 134 127 125 119 114 114 116 115 113 109 105 103 103 102 98 98 101 96 93 95 91 90 89 88 85 83 84 79 80 77 77 75 73 74 73 73
105 123 137 142 151 146 139 134 129 130 132 130 124 120 117 114 117 117 111 108 108 105 104 103 100 102 101 96 96 93 93 92 93 91 90 90 88 88 87 86 84 83 82 82 81
96 113 129 138 147 148 148 137 135 131 132 133 130 125 123 119 113 114 112 114 116 114 109 109 106 104 103 102 102 100 99 98 96 97 100 100 97 92 94 94 93 93 91 88 88
86 104 120 131 142 146 144 138 132 132 134 135 133 130 125 129 122 110 112 116 119 118 117 116 115 113 112 110 107 105 104 106 107 106 109 107 106 103 101 103 103 102 100 101 97
81 97 112 126 134 138 140 140 134 134 137 134 133 135 133 133 132 128 123 120 120 121 123 122 120 119 120 118 116 112 109 110 111 114 115 114 111 111 109 110 111 111 111 109 108
Wind_Direction
243 237 236 240 240 243 241 244 250 248 251 239 240 252 274 289 285 291 292 282 278 283 290 295 287 312 334 41 38 42 41 29 23 18 10 3 357 359 4 360 27 352 343 341 344
239 239 237 238 239 241 242 240 245 251 250 243 240 247 253 268 272 282 289 287 283 279 274 273 263 267 287 256 61 27 22 26 17 15 1 360 344 339 342 337 337 352 329 317 319
230 235 237 238 238 240 238 240 240 249 253 243 241 243 247 250 264 276 281 284 281 283 276 270 256 243 247 236 245 357 17 16 8 11 2 349 341 327 318 322 313 304 297 296 300
229 231 235 236 237 239 241 236 238 243 250 246 237 246 239 242 267 275 273 276 278 280 283 270 260 244 234 226 214 264 312 347 346 352 1 346 335 332 309 288 296 293 292 294 297
230 229 229 235 236 236 239 244 238 242 245 250 244 243 236 237 250 262 270 270 275 277 275 277 267 258 242 240 239 258 276 284 304 322 332 342 325 332 314 295 282 280 287 292 289
229 226 225 228 234 235 232 235 240 241 242 245 246 235 236 231 242 252 264 270 271 274 278 275 273 267 257 252 250 258 265 273 279 296 309 319 329 308 313 310 283 271 272 275 284
225 228 225 224 227 233 230 234 235 236 238 240 241 236 233 231 238 247 257 267 270 272 279 278 276 270 271 265 263 261 266 274 276 283 293 302 312 317 302 307 292 273 267 266 281
226 224 226 225 223 225 230 233 230 233 234 233 234 236 237 236 233 241 250 262 263 265 266 282 282 277 271 272 270 268 270 274 279 281 288 291 293 302 303 295 299 271 261 259 262
224 225 224 226 225 225 223 227 230 232 233 233 230 232 233 233 232 235 243 250 254 258 263 275 281 282 277 270 272 272 269 272 276 280 283 283 284 288 294 291 288 289 259 250 263
224 224 226 227 226 225 225 222 226 226 229 229 230 230 236 226 235 239 239 239 247 256 261 268 272 274 282 274 270 269 272 272 273 276 279 281 277 285 289 283 280 283 275 256 254
221 223 224 226 227 229 226 224 223 222 221 227 227 228 235 227 240 236 233 235 246 253 255 264 264 273 287 266 270 277 277 274 276 277 278 279 272 275 277 277 276 273 268 262 248
221 221 223 225 228 228 229 227 228 224 218 221 228 227 238 235 237 238 240 237 244 245 255 257 259 271 275 263 275 272 272 278 276 280 279 279 274 266 268 272 266 254 260 251 249
221 219 221 224 226 228 228 229 228 230 225 217 221 224 230 235 238 233 245 236 245 246 253 253 255 263 267 272 271 263 269 278 283 281 280 282 282 277 264 263 264 256 248 246 246
220 220 220 222 223 227 227 228 229 229 233 228 218 220 226 231 234 241 239 242 247 247 251 252 254 261 257 261 269 267 268 273 280 281 276 278 280 287 274 262 258 257 253 243 242
219 219 220 222 222 224 226 227 229 229 228 230 233 230 224 225 227 237 239 240 245 245 253 250 252 256 252 256 262 263 270 271 275 275 281 279 281 284 285 276 265 257 255 254 251
217 219 218 222 221 221 223 227 228 229 228 231 230 233 237 233 226 232 242 240 249 250 253 259 253 255 252 255 258 260 263 266 271 274 280 280 283 285 282 283 279 265 257 256 254
216 217 219 220 219 221 221 223 228 229 229 231 233 232 233 234 227 228 235 240 247 250 252 245 254 254 255 254 256 255 256 262 268 273 270 275 278 286 282 277 276 276 269 259 257
214 217 218 219 219 220 220 221 227 228 230 230 232 232 233 233 236 238 234 236 242 250 248 249 252 248 248 250 254 254 258 263 265 269 271 271 272 278 279 276 273 273 272 270 265
212 214 217 218 217 220 222 223 226 228 230 230 230 230 233 234 233 234 232 233 236 239 244 245 250 245 246 251 255 254 258 260 266 268 268 271 271 273 276 277 277 276 275 273 270
210 214 215 216 218 221 222 222 223 224 227 229 230 231 231 232 233 235 235 234 236 237 240 239 243 245 247 252 254 253 257 262 266 268 266 268 270 273 275 274 274 274 276 276 275
209 213 214 217 217 220 223 223 222 223 221 226 228 229 230 233 234 235 235 236 238 242 240 240 241 237 244 249 251 254 257 260 264 268 268 270 269 268 271 274 276 276 277 276 276
211 214 215 215 216 220 221 221 222 222 219 221 226 230 230 231 234 235 236 237 240 241 242 241 241 236 238 241 248 254 255 257 261 262 264 270 272 271 270 272 272 273 274 280 282
211 213 212 216 219 218 218 220 220 221 220 221 223 226 229 231 232 235 236 237 238 240 244 246 248 243 244 249 261 255 249 255 258 262 268 274 273 273 270 271 270 273 278 280 280
208 212 213 216 220 219 215 218 219 223 222 223 224 226 230 232 233 234 237 238 238 240 243 245 243 243 244 246 247 250 253 257 258 267 268 269 270 273 274 273 272 272 274 275 278
209 210 212 213 216 219 217 216 217 220 224 223 223 224 226 229 231 236 237 239 240 241 243 244 245 245 246 248 249 250 250 255 260 263 264 268 270 270 271 273 273 272 273 273 275
210 211 212 214 215 218 220 216 219 219 223 224 224 225 226 229 231 230 234 237 239 240 243 244 246 248 248 248 249 251 254 256 260 262 264 265 267 268 270 272 273 273 274 275 275
209 211 211 215 216 216 218 219 219 221 223 224 225 226 228 230 231 233 235 236 238 241 243 244 246 249 250 251 251 252 255 256 258 261 263 264 266 268 271 273 274 275 276 276 276